Location: Bouillancy
(49.1149°N, 2.9308°E)
Time: 08:41:55
(UTC+00:00)

Cosmos 1674 - Pass Details

Date: 30 September 2020
Orbit: 494 x 518 km, 82.5° (Epoch: 29 October)

Event Time Altitude Azimuth Distance (km) Brightness Sun altitude
Rises 18:37:28 0° 346° (NNW) 2,652 6.6 -12.1°
Reaches altitude 10° 18:39:39 10° 342° (NNW) 1,757 5.8 -12.5°
Maximum altitude 18:43:24 53° 265° (W) 639 3.5 -13.1°
Drops below altitude 10° 18:47:07 10° 188° (S) 1,731 5.3 -13.7°
Sets 18:49:15 0° 184° (S) 2,607 6.2 -14.0°
